EW7906 Weather Reports


time (UTC)temp
C
wind
direction
speed
KPH
gust
KPH
rain 1hr
cm
rain 24hr
cm
rain mn
cm
humidity
%
barometer
mb
20260831210242 65 123 1.6 9.7 0.00 0.00 0.00 100 1013.9
20260831205740 65 108 6.4 9.7 0.00 0.00 0.00 100 1013.9
20260831205239 65 22 1.6 12.9 0.00 0.00 0.00 100 1014.0
20260831205000 65 139 1.6 12.9 0.00 0.00 0.00 100 1014.2
20260831204228 65 112 6.4 12.9 0.00 0.00 0.00 100 1014.3
20260831203724 65 143 0.0 9.7 0.00 0.00 0.00 100 1014.3
20260831203226 65 154 3.2 14.5 0.00 0.00 0.00 100 1014.5
20260831202717 65 191 6.4 14.5 0.00 0.00 0.00 100 1014.6
20260831202217 65 229 4.8 14.5 0.00 0.00 0.00 100 1014.6
20260831201947 65 115 6.4 14.5 0.00 0.00 0.00 100 1014.8
20260831201214 65 202 1.6 16.1 0.00 0.00 0.00 100 1014.8
20260831200715 65 167 8.0 17.7 0.00 0.00 0.00 100 1014.9
20260831200219 65 154 6.4 17.7 0.00 0.00 0.00 100 1015.1
20260831200215 65 136 6.4 17.7 0.00 0.00 0.00 100 1015.0
20260831195447 65 187 9.7 17.7 0.00 0.00 0.00 100 1015.2
20260831194711 65 112 0.0 14.5 0.00 0.00 0.00 100 1015.2
20260831194158 65 150 0.0 14.5 0.00 0.00 0.00 100 1015.3
20260831193928 64 144 9.7 16.1 0.00 0.00 0.00 100 1015.4
20260831193156 63 109 6.4 16.1 0.00 0.00 0.00 100 1015.4
20260831192657 65 225 0.0 11.3 0.00 0.00 0.00 100 1015.4
20260831192427 64 206 3.2 16.1 0.00 0.00 0.00 100 1015.7
20260831191657 64 151 8.0 16.1 0.00 0.00 0.00 100 1015.7
20260831191157 65 181 4.8 14.5 0.00 0.00 0.00 100 1015.7
20260831190655 65 132 1.6 14.5 0.00 0.00 0.00 100 1015.9
20260831190150 65 144 8.0 16.1 0.00 0.00 0.00 100 1016.0
20260831185646 65 184 6.4 16.1 0.00 0.00 0.00 100 1016.1
20260831185147 65 125 0.0 16.1 0.00 0.00 0.00 100 1016.1
20260831184644 65 164 8.0 16.1 0.00 0.00 0.00 100 1016.2
20260831184143 65 198 0.0 14.5 0.00 0.00 0.00 100 1016.2
20260831183643 64 174 4.8 14.5 0.00 0.00 0.00 100 1016.3
20260831183142 65 199 0.0 11.3 0.00 0.00 0.00 100 1016.3
20260831182642 64 167 3.2 11.3 0.00 0.00 0.00 100 1016.4
20260831182143 63 118 0.0 14.5 0.00 0.00 0.00 100 1016.4
20260831181636 64 146 6.4 14.5 0.00 0.00 0.00 100 1016.4
20260831181137 64 147 3.2 14.5 0.00 0.00 0.00 100 1016.4
20260831180634 64 246 1.6 12.9 0.00 0.00 0.00 100 1016.5
20260831180131 64 149 4.8 12.9 0.00 0.00 0.00 100 1016.6
20260831175630 63 118 8.0 14.5 0.00 0.00 0.00 100 1016.7
20260831175115 64 189 9.7 14.5 0.00 0.00 0.00 100 1016.8
20260831174616 64 195 3.2 14.5 0.00 0.00 0.00 100 1016.9
20260831174116 64 140 3.2 14.5 0.00 0.00 0.00 100 1017.0
20260831173613 64 136 9.7 14.5 0.00 0.00 0.00 100 1017.0
20260831173113 64 205 0.0 9.7 0.00 0.00 0.00 100 1017.0
20260831172611 63 165 4.8 9.7 0.00 0.00 0.00 100 1017.2
20260831172111 64 180 0.0 17.7 0.00 0.00 0.00 100 1017.2
20260831171611 63 153 3.2 17.7 0.00 0.00 0.00 100 1017.2
20260831171112 64 108 0.0 11.3 0.00 0.00 0.00 100 1017.3
20260831170602 63 108 0.0 14.5 0.00 0.00 0.00 100 1017.3
20260831170332 63 123 9.7 14.5 0.00 0.00 0.00 100 1017.5
20260831165558 63 154 4.8 14.5 0.00 0.00 0.00 100 1017.3
20260831165057 63 142 9.7 14.5 0.00 0.00 0.00 100 1017.3
20260831164827 64 192 1.6 14.5 0.00 0.00 0.00 100 1017.3
20260831164056 63 132 8.0 14.5 0.00 0.00 0.00 100 1017.5
20260831163557 63 164 4.8 14.5 0.00 0.00 0.00 100 1017.5
20260831163101 63 126 3.2 11.3 0.00 0.00 0.00 100 1017.3
20260831163057 63 164 3.2 11.3 0.00 0.00 0.00 100 1017.3
20260831162328 63 348 0.0 14.5 0.00 0.00 0.00 100 1017.3
20260831161545 63 126 9.7 16.1 0.00 0.00 0.00 100 1017.5
20260831161043 63 157 8.0 16.1 0.00 0.00 0.00 100 1017.3
20260831160533 63 160 6.4 11.3 0.00 0.00 0.00 100 1017.3
20260831160304 63 267 0.0 12.9 0.00 0.00 0.00 100 1017.5
20260831155514 63 129 4.8 12.9 0.00 0.00 0.00 100 1017.5
20260831155014 63 122 1.6 12.9 0.00 0.00 0.00 100 1017.5
20260831154509 63 171 1.6 14.5 0.00 0.00 0.00 100 1017.5
20260831154005 63 226 9.7 14.5 0.00 0.00 0.00 100 1017.3
20260831153505 63 180 6.4 12.9 0.00 0.00 0.00 100 1017.3
20260831153005 63 158 3.2 12.9 0.00 0.00 0.00 100 1017.2
20260831152457 63 189 4.8 11.3 0.00 0.00 0.00 100 1017.2
20260831151956 62 150 4.8 12.9 0.00 0.00 0.00 100 1017.2
20260831151456 62 203 6.4 14.5 0.00 0.00 0.00 100 1017.1
20260831150956 62 163 3.2 14.5 0.00 0.00 0.00 100 1017.2
20260831150455 62 210 6.4 11.3 0.00 0.00 0.00 100 1017.1
20260831145955 62 160 6.4 14.5 0.00 0.00 0.00 100 1017.0
20260831145457 62 116 3.2 14.5 0.00 0.00 0.00 100 1017.0
20260831144957 62 172 4.8 11.3 0.00 0.00 0.00 100 1016.9
20260831144457 62 132 6.4 12.9 0.00 0.00 0.00 100 1016.9
20260831143956 62 137 3.2 12.9 0.00 0.00 0.00 100 1017.0
20260831143714 62 153 4.8 9.7 0.00 0.00 0.00 100 1016.9
20260831142944 62 151 0.0 14.5 0.00 0.00 0.00 100 1016.8
20260831142443 62 125 3.2 14.5 0.00 0.00 0.00 100 1016.9
20260831142213 62 198 4.8 14.5 0.00 0.00 0.00 100 1016.9
20260831141442 62 222 3.2 14.5 0.00 0.00 0.00 100 1016.8
20260831140942 62 188 6.4 14.5 0.00 0.00 0.00 100 1016.8
20260831140441 62 191 0.0 14.5 0.00 0.00 0.00 100 1016.7
20260831140146 62 194 0.0 14.5 0.00 0.00 0.00 100 1016.7
20260831135416 62 247 8.0 16.1 0.00 0.00 0.00 100 1016.6
20260831134910 62 171 6.4 16.1 0.00 0.00 0.00 100 1016.6
20260831134642 62 209 8.0 11.3 0.00 0.00 0.00 100 1016.6
20260831134142 62 157 0.0 11.3 0.00 0.00 0.00 100 1016.6
20260831133356 62 157 0.0 11.3 0.00 0.00 0.00 100 1016.5
20260831132851 62 178 0.0 8.0 0.00 0.00 0.00 1 1016.5
20260831132351 62 188 0.0 0.0 0.00 0.00 0.00 3 1016.6
20260831131843 62 188 0.0 0.0 0.00 0.00 0.00 4 1016.6
20260831131333 61 188 0.0 0.0 0.00 0.00 0.00 5 1016.5
20260831131048 61 188 0.0 0.0 0.00 0.00 0.00 6 1016.4
20260831130311 61 188 0.0 0.0 0.00 0.00 0.00 7 1016.4
20260831130043 61 188 0.0 0.0 0.00 0.00 0.00 12 1016.3
20260831125306 61 188 0.0 0.0 0.00 0.00 0.00 16 1016.2
20260831124802 61 188 0.0 0.0 0.00 0.00 0.00 16 1016.2
20260831124507 61 188 0.0 0.0 0.00 0.00 0.00 16 1016.1
20260831123734 61 188 0.0 0.0 0.00 0.00 0.00 16 1016.2
20260831123504 61 188 0.0 0.0 0.00 0.00 0.00 16 1016.1
20260831122724 61 188 0.0 0.0 0.00 0.00 0.00 13 1016.1
20260831122216 61 188 0.0 0.0 0.00 0.00 0.00 10 1016.0
20260831121711 61 188 0.0 0.0 0.00 0.00 0.00 7 1016.1
20260831121210 61 188 0.0 0.0 0.00 0.00 0.00 6 1016.0
20260831120651 61 188 0.0 0.0 0.00 0.00 0.00 5 1016.0
20260831120115 61 188 0.0 0.0 0.00 0.00 0.00 4 1015.9
20260831115827 61 188 0.0 0.0 0.00 0.00 0.00 3 1015.9
20260831115047 61 188 0.0 0.0 0.00 0.00 0.00 3 1015.9
20260831114526 61 188 0.0 0.0 0.00 0.00 0.00 2 1015.9
20260831114024 61 188 0.0 6.4 0.00 0.00 0.00 2 1015.9
20260831113512 61 188 0.0 9.7 0.00 0.00 0.00 2 1016.0
20260831113228 61 192 1.6 11.3 0.00 0.00 0.00 2 1016.0
20260831112456 61 174 0.0 11.3 0.00 0.00 0.00 2 1016.0
20260831111441 61 136 0.0 0.0 0.00 0.00 0.00 2 1015.9
20260831110936 61 136 0.0 0.0 0.00 0.00 0.00 2 1015.9
20260831110437 61 136 0.0 9.7 0.00 0.00 0.00 2 1015.8
20260831105927 61 136 0.0 9.7 0.00 0.00 0.00 1 1015.7
20260831105427 61 213 0.0 9.7 0.00 0.00 0.00 1 1015.8
20260831104924 61 201 0.0 6.4 0.00 0.00 0.00 1 1015.8
20260831104416 61 201 1.6 6.4 0.00 0.00 0.00 100 1015.8
20260831103911 61 153 0.0 11.3 0.00 0.00 0.00 100 1015.8
20260831103409 62 153 0.0 11.3 0.00 0.00 0.00 100 1015.9
20260831102858 61 157 0.0 6.4 0.00 0.00 0.00 100 1015.8
20260831102357 61 157 0.0 11.3 0.00 0.00 0.00 100 1015.8
20260831101855 61 163 4.8 11.3 0.00 0.00 0.00 100 1015.8
20260831101355 61 161 6.4 9.7 0.00 0.00 0.00 100 1015.8
20260831100840 61 165 0.0 9.7 0.00 0.00 0.00 100 1015.9
20260831100341 61 170 0.0 6.4 0.00 0.00 0.00 100 1015.9
20260831095831 61 170 0.0 9.7 0.00 0.00 0.00 100 1015.9
20260831095308 62 101 0.0 9.7 0.00 0.00 0.00 100 1015.9
20260831095037 62 199 1.6 8.0 0.00 0.00 0.00 100 1015.9
20260831094304 62 174 0.0 11.3 0.00 0.00 0.00 100 1015.9
20260831094028 62 174 3.2 11.3 0.00 0.00 0.00 100 1015.8
20260831093230 61 196 0.0 9.7 0.00 0.00 0.00 100 1015.9
20260831092730 62 213 0.0 8.0 0.00 0.00 0.00 100 1015.9
20260831092230 62 133 0.0 8.0 0.00 0.00 0.00 100 1015.8
20260831091728 62 206 0.0 9.7 0.00 0.00 0.00 100 1015.8
20260831091444 61 170 0.0 9.7 0.00 0.00 0.00 100 1015.7
20260831090940 61 154 0.0 14.5 0.00 0.00 0.00 100 1015.6
20260831090208 61 161 0.0 17.7 0.00 0.00 0.00 100 1015.7
20260831085708 61 208 4.8 17.7 0.00 0.00 0.00 100 1015.7
20260831085429 62 177 6.4 14.5 0.00 0.00 0.00 100 1015.8
20260831084658 62 150 1.6 16.1 0.00 0.00 0.00 100 1015.8
20260831084156 62 191 8.0 16.1 0.00 0.00 0.00 100 1015.8
20260831083656 62 111 3.2 11.3 0.00 0.00 0.00 100 1015.8
20260831083155 62 164 3.2 11.3 0.00 0.00 0.00 100 1015.8
20260831082656 62 165 6.4 9.7 0.00 0.00 0.00 100 1015.9
20260831082157 62 140 0.0 8.0 0.00 0.00 0.00 100 1015.9
20260831081643 62 160 1.6 14.5 0.00 0.00 0.00 100 1015.9
20260831081131 62 158 3.2 14.5 0.00 0.00 0.00 100 1016.0
20260831080632 62 143 3.2 9.7 0.00 0.00 0.00 100 1016.0
20260831080132 62 135 0.0 8.0 0.00 0.00 0.00 100 1016.0
20260831075630 62 149 0.0 9.7 0.00 0.00 0.00 100 1015.9
20260831075118 61 151 1.6 9.7 0.00 0.00 0.00 100 1015.9
20260831074618 61 205 1.6 16.1 0.00 0.00 0.00 100 1015.9
20260831074116 61 177 8.0 16.1 0.00 0.00 0.00 100 1015.9
20260831073618 61 82 0.0 12.9 0.00 0.00 0.00 100 1015.9
20260831073311 61 174 0.0 12.9 0.00 0.00 0.00 100 1015.9
20260831072538 62 160 6.4 12.9 0.00 0.00 0.00 100 1015.9
20260831072036 62 156 6.4 12.9 0.00 0.00 0.00 100 1016.0
20260831071807 62 142 0.0 9.7 0.00 0.00 0.00 100 1015.9
20260831071037 62 194 0.0 9.7 0.00 0.00 0.00 100 1016.0
20260831070537 62 149 3.2 16.1 0.00 0.00 0.00 100 1015.9
20260831070014 62 175 4.8 16.1 0.00 0.00 0.00 100 1015.9
20260831065514 62 139 0.0 11.3 0.00 0.00 0.00 100 1016.0
20260831064958 62 150 8.0 11.3 0.00 0.00 0.00 100 1015.9
20260831064456 62 177 0.0 11.3 0.00 0.00 0.00 100 1016.0
20260831063956 62 194 4.8 8.0 0.00 0.00 0.00 100 1016.0
20260831063730 62 167 0.0 6.4 0.00 0.00 0.00 100 1016.0
20260831063216 62 127 0.0 8.0 0.00 0.00 0.00 100 1016.1
20260831062441 62 123 3.2 8.0 0.00 0.00 0.00 100 1016.1
20260831061938 62 142 0.0 14.5 0.00 0.00 0.00 100 1015.9
20260831061414 62 149 3.2 14.5 0.00 0.00 0.00 100 1015.9
20260831061144 62 108 0.0 4.8 0.00 0.00 0.00 100 1015.8
20260831060410 62 153 0.0 0.0 0.00 0.00 0.00 100 1015.8
20260831060340 62 153 0.0 0.0 0.00 0.00 0.00 100 1015.8
20260831055557 62 153 0.0 8.0 0.00 0.00 0.00 100 1015.8
20260831054811 62 153 0.0 9.7 0.00 0.00 0.00 100 1015.7
20260831054308 62 142 1.6 9.7 0.00 0.00 0.00 100 1015.7
20260831053800 62 132 0.0 6.4 0.00 0.00 0.00 100 1015.6
20260831053256 62 154 3.2 9.7 0.00 0.00 0.00 100 1015.6
20260831052755 62 161 3.2 9.7 0.00 0.00 0.00 100 1015.6
20260831052248 62 113 0.0 12.9 0.00 0.00 0.00 100 1015.4
20260831051747 62 113 0.0 12.9 0.00 0.00 0.00 100 1015.4
20260831051509 62 174 0.0 9.7 0.00 0.00 0.00 100 1015.3
20260831050736 62 160 3.2 9.7 0.00 0.00 0.00 100 1015.3
20260831050507 62 165 0.0 8.0 0.00 0.00 0.00 100 1015.3
20260831045728 62 177 1.6 8.0 0.00 0.00 0.00 100 1015.2
20260831045218 62 126 6.4 11.3 0.00 0.00 0.00 100 1015.2
20260831044716 62 163 3.2 11.3 0.00 0.00 0.00 100 1015.1
20260831044210 62 201 0.0 11.3 0.00 0.00 0.00 100 1015.1
20260831043657 62 171 6.4 17.7 0.00 0.00 0.00 100 1015.1
20260831043157 62 180 4.8 17.7 0.00 0.00 0.00 100 1015.2
20260831042657 62 149 3.2 14.5 0.00 0.00 0.00 100 1015.3
20260831042428 62 154 8.0 14.5 0.00 0.00 0.00 100 1015.3
20260831041701 62 136 6.4 12.9 0.00 0.00 0.00 100 1015.2
20260831041657 62 157 8.0 12.9 0.00 0.00 0.00 100 1015.2
20260831040657 62 157 6.4 12.9 0.00 0.00 0.00 100 1015.2
20260831040157 62 130 4.8 11.3 0.00 0.00 0.00 100 1015.2
20260831035927 63 203 6.4 12.9 0.00 0.00 0.00 100 1015.2
20260831035157 63 130 8.0 16.1 0.00 0.00 0.00 100 1015.1
20260831034657 63 129 9.7 16.1 0.00 0.00 0.00 100 1015.0
20260831034157 62 149 6.4 16.1 0.00 0.00 0.00 100 1015.0
20260831033927 62 150 6.4 16.1 0.00 0.00 0.00 100 1014.8
20260831033428 63 157 3.2 16.1 0.00 0.00 0.00 100 1014.8
20260831032656 63 170 3.2 16.1 0.00 0.00 0.00 100 1014.7
20260831032157 63 181 6.4 16.1 0.00 0.00 0.00 100 1014.6
20260831031657 63 139 3.2 12.9 0.00 0.00 0.00 100 1014.5
20260831031157 63 132 0.0 14.5 0.00 0.00 0.00 100 1014.5
20260831030657 63 133 4.8 16.1 0.00 0.00 0.00 100 1014.3
20260831030428 63 149 1.6 16.1 0.00 0.00 0.00 100 1014.2
20260831025658 63 127 6.4 17.7 0.00 0.00 0.00 100 1014.3
20260831025427 63 135 9.7 17.7 0.00 0.00 0.00 100 1014.2
20260831024657 63 168 4.8 16.1 0.00 0.00 0.00 100 1014.1
20260831024157 63 153 6.4 16.1 0.00 0.00 0.00 100 1014.1
20260831023656 63 172 8.0 16.1 0.00 0.00 0.00 100 1014.0
20260831023156 63 140 6.4 16.1 0.00 0.00 0.00 100 1014.0
20260831022656 63 135 6.4 19.3 0.00 0.00 0.00 100 1013.9
20260831022156 63 158 6.4 19.3 0.00 0.00 0.00 100 1013.8
20260831021656 63 143 8.0 17.7 0.00 0.00 0.00 100 1013.6
20260831021150 63 139 1.6 17.7 0.00 0.00 0.00 100 1013.5
20260831020650 63 164 3.2 19.3 0.00 0.00 0.00 100 1013.4
20260831020150 63 112 8.0 19.3 0.00 0.00 0.00 100 1013.4
20260831015643 63 161 4.8 16.1 0.00 0.00 0.00 100 1013.3
20260831015142 63 90 0.0 0.0 0.00 0.00 0.00 100 1013.1
20260831014626 63 90 0.0 0.0 0.00 0.00 0.00 100 1013.0
20260831014113 63 90 0.0 3.2 0.00 0.00 0.00 100 1012.9
20260831013616 63 130 0.0 0.0 0.00 0.00 0.00 100 1012.6
20260831013612 63 90 0.0 3.2 0.00 0.00 0.00 100 1012.9
20260831012830 63 130 0.0 8.0 0.00 0.00 0.00 100 1012.6
20260831012037 63 130 1.6 8.0 0.00 0.00 0.00 100 1012.6
20260831011528 63 129 0.0 6.4 0.00 0.00 0.00 100 1012.5
20260831011028 63 136 0.0 6.4 0.00 0.00 0.00 100 1012.5
20260831010500 63 149 0.0 11.3 0.00 0.00 0.00 100 1012.6
20260831010224 63 149 0.0 11.3 0.00 0.00 0.00 100 1012.5
20260831005427 63 174 0.0 8.0 0.00 0.00 0.00 100 1012.6
20260831004911 63 202 3.2 8.0 0.00 0.00 0.00 100 1012.6
20260831004412 63 147 0.0 11.3 0.00 0.00 0.00 100 1012.6
20260831003852 63 147 4.8 11.3 0.00 0.00 0.00 100 1012.5
20260831003351 63 129 4.8 9.7 0.00 0.00 0.00 100 1012.4
20260831002847 63 156 4.8 14.5 0.00 0.00 0.00 100 1012.4
20260831002330 63 104 6.4 14.5 0.00 0.00 0.00 100 1012.4
20260831001831 63 153 0.0 11.3 0.00 0.00 0.00 100 1012.3
20260831001309 64 153 0.0 11.3 0.00 0.00 0.00 100 1012.3
20260831000744 64 139 0.0 11.3 0.00 0.00 0.00 100 1012.3
20260831000242 64 136 1.6 12.9 0.00 0.00 0.00 100 1012.2
20260830235743 64 127 1.6 12.9 0.00 0.00 0.00 100 1012.3
20260830235234 64 112 6.4 9.7 0.00 0.00 0.00 100 1012.3
20260830234736 64 116 0.0 9.7 0.00 0.00 0.00 100 1012.3
20260830234233 64 153 0.0 14.5 0.00 0.00 0.00 100 1012.4
20260830234229 64 116 6.4 12.9 0.00 0.00 0.00 100 1012.3
20260830233446 64 146 4.8 12.9 0.00 0.00 0.00 100 1012.3
20260830232945 64 151 0.0 6.4 0.00 0.00 0.00 100 1012.2
20260830232212 65 230 1.6 16.1 0.00 0.00 0.00 100 1012.3
20260830231711 64 144 4.8 16.1 0.00 0.00 0.00 100 1012.4
20260830231210 65 180 0.0 12.9 0.00 0.00 0.00 100 1012.3
20260830230710 65 210 1.6 12.9 0.00 0.00 0.00 100 1012.3
20260830230207 65 125 4.8 14.5 0.00 0.00 0.00 100 1012.3
20260830225937 64 147 0.0 14.5 0.00 0.00 0.00 100 1012.3
20260830225158 64 143 9.7 14.5 0.00 0.00 0.00 100 1012.4
20260830224659 65 201 1.6 14.5 0.00 0.00 0.00 100 1012.5
20260830224143 65 192 8.0 11.3 0.00 0.00 0.00 100 1012.5
20260830223646 65 143 4.8 12.9 0.00 0.00 0.00 100 1012.5
20260830223642 65 147 3.2 12.9 0.00 0.00 0.00 100 1012.5
20260830222622 65 160 3.2 12.9 0.00 0.00 0.00 100 1012.5
20260830222113 65 130 3.2 17.7 0.00 0.00 0.00 100 1012.5
20260830221559 65 150 9.7 17.7 0.00 0.00 0.00 100 1012.6
20260830221059 65 129 0.0 14.5 0.00 0.00 0.00 100 1012.5
20260830220826 65 181 3.2 14.5 0.00 0.00 0.00 100 1012.8
20260830220056 65 122 3.2 12.9 0.00 0.00 0.00 100 1012.8
20260830215556 65 185 3.2 12.9 0.00 0.00 0.00 100 1012.8
20260830215058 64 153 0.0 16.1 0.00 0.00 0.00 100 1012.8
20260830214557 65 151 6.4 16.1 0.00 0.00 0.00 100 1012.9
20260830214055 65 194 1.6 14.5 0.00 0.00 0.00 100 1013.0
20260830213557 65 147 0.0 14.5 0.00 0.00 0.00 100 1013.0
20260830213056 65 213 9.7 12.9 0.00 0.00 0.00 100 1013.1
20260830212556 65 226 6.4 12.9 0.00 0.00 0.00 100 1013.2
20260830212057 64 120 1.6 12.9 0.00 0.00 0.00 100 1013.3
20260830211557 65 139 4.8 14.5 0.00 0.00 0.00 100 1013.4
20260830211056 65 146 8.0 14.5 0.00 0.00 0.00 100 1013.5